| time (UTC) | temp F | wind direction | speed MPH | gust MPH | rain 1hr in | rain 24hr in | rain mn in | humidity % | barometer mb |
| 20260510082211 | 74 | 359 | 1.0 | 4.0 | 0.00 | 0.00 | 0.00 | 62 | 1010.8 |
| 20260510081930 | 74 | 31 | 1.0 | 3.0 | 0.00 | 0.00 | 0.00 | 61 | 1010.5 |
| 20260510081141 | 74 | 153 | 1.0 | 2.0 | 0.00 | 0.00 | 0.00 | 60 | 1010.3 |
| 20260510080640 | 74 | 164 | 0.0 | 2.0 | 0.00 | 0.00 | 0.00 | 60 | 1010.0 |
| 20260510080115 | 74 | 164 | 0.0 | 0.0 | 0.00 | 0.00 | 0.00 | 60 | 1009.7 |
| 20260510075549 | 74 | 164 | 0.0 | 0.0 | 0.00 | 0.00 | 0.00 | 60 | 1009.6 |
| 20260510075019 | 75 | 164 | 0.0 | 3.0 | 0.00 | 0.00 | 0.00 | 60 | 1009.4 |
| 20260510074517 | 75 | 164 | 0.0 | 3.0 | 0.00 | 0.00 | 0.00 | 60 | 1009.3 |
| 20260510073952 | 75 | 164 | 0.0 | 7.0 | 0.00 | 0.00 | 0.00 | 60 | 1009.1 |
| 20260510073425 | 75 | 164 | 1.0 | 7.0 | 0.00 | 0.00 | 0.00 | 60 | 1008.9 |
| 20260510072857 | 75 | 164 | 2.0 | 5.0 | 0.00 | 0.00 | 0.00 | 59 | 1008.7 |
| 20260510072359 | 75 | 160 | 1.0 | 5.0 | 0.00 | 0.00 | 0.00 | 58 | 1008.9 |
| 20260510071820 | 75 | 109 | 0.0 | 3.0 | 0.00 | 0.00 | 0.00 | 58 | 1009.0 |
| 20260510071317 | 76 | 71 | 0.0 | 6.0 | 0.00 | 0.00 | 0.00 | 58 | 1009.2 |
| 20260510070753 | 76 | 11 | 0.0 | 6.0 | 0.00 | 0.00 | 0.00 | 58 | 1009.7 |
| 20260510070228 | 76 | 4 | 1.0 | 6.0 | 0.00 | 0.00 | 0.00 | 58 | 1010.1 |
| 20260510065659 | 75 | 36 | 2.0 | 6.0 | 0.00 | 0.00 | 0.00 | 58 | 1010.2 |
| 20260510065158 | 75 | 20 | 1.0 | 5.0 | 0.00 | 0.00 | 0.00 | 57 | 1010.3 |
| 20260510064629 | 75 | 10 | 2.0 | 5.0 | 0.00 | 0.00 | 0.00 | 57 | 1010.3 |
| 20260510064126 | 75 | 0 | 1.0 | 5.0 | 0.00 | 0.00 | 0.00 | 57 | 1010.3 |
| 20260510063623 | 75 | 2 | 1.0 | 5.0 | 0.00 | 0.00 | 0.00 | 57 | 1010.2 |
| 20260510063121 | 75 | 1 | 2.0 | 5.0 | 0.00 | 0.00 | 0.00 | 57 | 1010.2 |
| 20260510062553 | 75 | 359 | 3.0 | 5.0 | 0.00 | 0.00 | 0.00 | 57 | 1010.3 |
| 20260510062050 | 75 | 13 | 1.0 | 4.0 | 0.00 | 0.00 | 0.00 | 57 | 1010.3 |
| 20260510061547 | 75 | 170 | 0.0 | 2.0 | 0.00 | 0.00 | 0.00 | 57 | 1009.9 |
| 20260510061044 | 75 | 170 | 0.0 | 5.0 | 0.00 | 0.00 | 0.00 | 57 | 1009.3 |
| 20260510060541 | 75 | 170 | 1.0 | 5.0 | 0.00 | 0.00 | 0.00 | 57 | 1008.8 |
| 20260510060307 | 75 | 172 | 2.0 | 8.0 | 0.00 | 0.00 | 0.00 | 57 | 1008.4 |
| 20260510055513 | 75 | 170 | 2.0 | 8.0 | 0.00 | 0.00 | 0.00 | 57 | 1008.4 |
| 20260510055011 | 75 | 160 | 2.0 | 8.0 | 0.00 | 0.00 | 0.00 | 57 | 1008.4 |
| 20260510054443 | 75 | 164 | 2.0 | 8.0 | 0.00 | 0.00 | 0.00 | 58 | 1008.4 |
| 20260510053941 | 75 | 164 | 2.0 | 9.0 | 0.00 | 0.00 | 0.00 | 58 | 1008.3 |
| 20260510053413 | 75 | 158 | 3.0 | 9.0 | 0.00 | 0.00 | 0.00 | 58 | 1008.1 |
| 20260510052911 | 75 | 151 | 3.0 | 11.0 | 0.00 | 0.00 | 0.00 | 58 | 1007.9 |
| 20260510052346 | 75 | 168 | 3.0 | 11.0 | 0.00 | 0.00 | 0.00 | 58 | 1008.1 |
| 20260510052255 | 75 | 160 | 2.0 | 5.0 | 0.00 | 0.00 | 0.00 | 58 | 1008.2 |
| 20260510051252 | 76 | 162 | 2.0 | 8.0 | 0.00 | 0.00 | 0.00 | 57 | 1008.3 |
| 20260510051009 | 76 | 163 | 2.0 | 8.0 | 0.00 | 0.00 | 0.00 | 57 | 1008.1 |
| 20260510050512 | 75 | 138 | 3.0 | 11.0 | 0.00 | 0.00 | 0.00 | 78 | 1008.0 |
| 20260510045736 | 75 | 143 | 4.0 | 11.0 | 0.00 | 0.00 | 0.00 | 77 | 1007.9 |
| 20260510045236 | 76 | 120 | 5.0 | 12.0 | 0.00 | 0.00 | 0.00 | 77 | 1007.9 |
| 20260510044736 | 76 | 142 | 4.0 | 12.0 | 0.00 | 0.00 | 0.00 | 77 | 1007.7 |
| 20260510044222 | 76 | 132 | 3.0 | 9.0 | 0.00 | 0.00 | 0.00 | 76 | 1007.7 |
| 20260510043724 | 76 | 146 | 3.0 | 8.0 | 0.00 | 0.00 | 0.00 | 75 | 1007.6 |
| 20260510043206 | 76 | 136 | 4.0 | 8.0 | 0.00 | 0.00 | 0.00 | 75 | 1007.5 |
| 20260510042928 | 76 | 141 | 3.0 | 8.0 | 0.00 | 0.00 | 0.00 | 73 | 1007.6 |
| 20260510042204 | 76 | 143 | 2.0 | 8.0 | 0.00 | 0.00 | 0.00 | 72 | 1007.7 |
| 20260510041922 | 76 | 139 | 2.0 | 6.0 | 0.00 | 0.00 | 0.00 | 70 | 1007.9 |
| 20260510041200 | 76 | 121 | 2.0 | 7.0 | 0.00 | 0.00 | 0.00 | 69 | 1008.0 |
| 20260510040703 | 76 | 143 | 1.0 | 7.0 | 0.00 | 0.00 | 0.00 | 68 | 1008.0 |
| 20260510040622 | 76 | 127 | 2.0 | 4.0 | 0.00 | 0.00 | 0.00 | 68 | 1008.0 |
| 20260510035640 | 76 | 110 | 1.0 | 5.0 | 0.00 | 0.00 | 0.00 | 68 | 1007.9 |
| 20260510035118 | 76 | 125 | 1.0 | 3.0 | 0.00 | 0.00 | 0.00 | 68 | 1007.9 |
| 20260510034617 | 76 | 156 | 1.0 | 5.0 | 0.00 | 0.00 | 0.00 | 68 | 1007.9 |
| 20260510034107 | 76 | 141 | 1.0 | 5.0 | 0.00 | 0.00 | 0.00 | 67 | 1007.8 |
| 20260510033539 | 76 | 138 | 1.0 | 3.0 | 0.00 | 0.00 | 0.00 | 68 | 1007.8 |
| 20260510033035 | 75 | 117 | 0.0 | 2.0 | 0.00 | 0.00 | 0.00 | 69 | 1007.8 |
| 20260510032534 | 76 | 148 | 0.0 | 1.0 | 0.00 | 0.00 | 0.00 | 68 | 1007.8 |
| 20260510032037 | 76 | 116 | 0.0 | 2.0 | 0.00 | 0.00 | 0.00 | 67 | 1007.9 |
| 20260510031728 | 76 | 131 | 0.0 | 2.0 | 0.00 | 0.00 | 0.00 | 67 | 1007.9 |
| 20260510031203 | 75 | 115 | 0.0 | 3.0 | 0.00 | 0.00 | 0.00 | 69 | 1008.0 |
| 20260510031048 | 76 | 128 | 0.0 | 3.0 | 0.00 | 0.00 | 0.00 | 68 | 1007.9 |
| 20260510030608 | 74 | 129 | 0.0 | 2.0 | 0.00 | 0.00 | 0.00 | 70 | 1007.9 |
| 20260510025411 | 74 | 132 | 0.0 | 2.0 | 0.00 | 0.00 | 0.00 | 71 | 1007.9 |
| 20260510024842 | 74 | 117 | 0.0 | 0.0 | 0.00 | 0.00 | 0.00 | 71 | 1007.9 |
| 20260510024339 | 74 | 58 | 0.0 | 0.0 | 0.00 | 0.00 | 0.00 | 71 | 1007.9 |
| 20260510024052 | 74 | 58 | 0.0 | 0.0 | 0.00 | 0.00 | 0.00 | 70 | 1007.8 |
| 20260510023333 | 74 | 58 | 0.0 | 0.0 | 0.00 | 0.00 | 0.00 | 70 | 1007.8 |
| 20260510022810 | 74 | 58 | 0.0 | 0.0 | 0.00 | 0.00 | 0.00 | 69 | 1007.7 |
| 20260510022240 | 74 | 58 | 0.0 | 0.0 | 0.00 | 0.00 | 0.00 | 68 | 1007.7 |
| 20260510021737 | 75 | 58 | 0.0 | 0.0 | 0.00 | 0.00 | 0.00 | 67 | 1007.6 |
| 20260510021211 | 75 | 58 | 0.0 | 0.0 | 0.00 | 0.00 | 0.00 | 67 | 1007.6 |
| 20260510020708 | 75 | 58 | 0.0 | 0.0 | 0.00 | 0.00 | 0.00 | 66 | 1007.6 |
| 20260510020207 | 76 | 58 | 0.0 | 0.0 | 0.00 | 0.00 | 0.00 | 66 | 1007.5 |
| 20260510015654 | 76 | 58 | 0.0 | 0.0 | 0.00 | 0.00 | 0.00 | 66 | 1007.4 |
| 20260510015156 | 76 | 58 | 0.0 | 0.0 | 0.00 | 0.00 | 0.00 | 65 | 1007.3 |
| 20260510014909 | 77 | 58 | 0.0 | 0.0 | 0.00 | 0.00 | 0.00 | 64 | 1007.3 |
| 20260510014543 | 77 | 58 | 0.0 | 0.0 | 0.00 | 0.00 | 0.00 | 62 | 1007.2 |
| 20260510014205 | 77 | 58 | 0.0 | 0.0 | 0.00 | 0.00 | 0.00 | 63 | 1007.3 |
| 20260510013536 | 78 | 58 | 0.0 | 0.0 | 0.00 | 0.00 | 0.00 | 59 | 1007.2 |
| 20260510012810 | 78 | 58 | 0.0 | 0.0 | 0.00 | 0.00 | 0.00 | 58 | 1007.1 |
| 20260510012026 | 79 | 58 | 0.0 | 0.0 | 0.00 | 0.00 | 0.00 | 57 | 1007.0 |
| 20260510011456 | 79 | 58 | 0.0 | 2.0 | 0.00 | 0.00 | 0.00 | 57 | 1006.9 |
| 20260510011217 | 80 | 58 | 0.0 | 2.0 | 0.00 | 0.00 | 0.00 | 56 | 1006.8 |
| 20260510010429 | 80 | 30 | 0.0 | 1.0 | 0.00 | 0.00 | 0.00 | 54 | 1006.8 |
| 20260510005900 | 81 | 30 | 0.0 | 1.0 | 0.00 | 0.00 | 0.00 | 53 | 1006.7 |
| 20260510005357 | 82 | 30 | 0.0 | 1.0 | 0.00 | 0.00 | 0.00 | 52 | 1006.7 |
| 20260510004828 | 82 | 47 | 0.0 | 1.0 | 0.00 | 0.00 | 0.00 | 51 | 1006.7 |
| 20260510004327 | 82 | 49 | 0.0 | 1.0 | 0.00 | 0.00 | 0.00 | 50 | 1006.7 |
| 20260510003758 | 83 | 49 | 0.0 | 1.0 | 0.00 | 0.00 | 0.00 | 50 | 1006.7 |
| 20260510003256 | 83 | 49 | 0.0 | 1.0 | 0.00 | 0.00 | 0.00 | 50 | 1006.7 |
| 20260510002752 | 84 | 69 | 0.0 | 3.0 | 0.00 | 0.00 | 0.00 | 49 | 1006.7 |
| 20260510002511 | 84 | 75 | 0.0 | 2.0 | 0.00 | 0.00 | 0.00 | 47 | 1006.7 |
| 20260510001722 | 85 | 49 | 0.0 | 4.0 | 0.00 | 0.00 | 0.00 | 46 | 1006.8 |
| 20260510001218 | 85 | 324 | 0.0 | 4.0 | 0.00 | 0.00 | 0.00 | 44 | 1006.8 |
| 20260510000654 | 86 | 69 | 0.0 | 4.0 | 0.00 | 0.00 | 0.00 | 43 | 1006.8 |
| 20260510000126 | 86 | 35 | 0.0 | 4.0 | 0.00 | 0.00 | 0.00 | 42 | 1006.7 |
| 20260509235623 | 87 | 66 | 0.0 | 3.0 | 0.00 | 0.00 | 0.00 | 41 | 1006.7 |
| 20260509235342 | 87 | 54 | 0.0 | 3.0 | 0.00 | 0.00 | 0.00 | 41 | 1006.7 |
| 20260509234619 | 87 | 62 | 0.0 | 3.0 | 0.00 | 0.00 | 0.00 | 42 | 1006.7 |
| 20260509234051 | 87 | 77 | 0.0 | 3.0 | 0.00 | 0.00 | 0.00 | 44 | 1006.7 |
| 20260509234035 | 87 | 15 | 0.0 | 3.0 | 0.00 | 0.00 | 0.00 | 42 | 1006.7 |
| 20260509233044 | 87 | 336 | 0.0 | 3.0 | 0.00 | 0.00 | 0.00 | 42 | 1006.7 |
| 20260509232542 | 87 | 336 | 0.0 | 3.0 | 0.00 | 0.00 | 0.00 | 43 | 1006.7 |
| 20260509232018 | 87 | 56 | 0.0 | 3.0 | 0.00 | 0.00 | 0.00 | 45 | 1006.7 |
| 20260509231448 | 88 | 68 | 0.0 | 3.0 | 0.00 | 0.00 | 0.00 | 43 | 1006.7 |
| 20260509230947 | 87 | 68 | 0.0 | 5.0 | 0.00 | 0.00 | 0.00 | 42 | 1006.8 |
| 20260509230422 | 87 | 338 | 1.0 | 5.0 | 0.00 | 0.00 | 0.00 | 40 | 1006.8 |
| 20260509225852 | 87 | 73 | 1.0 | 5.0 | 0.00 | 0.00 | 0.00 | 38 | 1006.7 |
| 20260509225351 | 88 | 329 | 1.0 | 5.0 | 0.00 | 0.00 | 0.00 | 38 | 1006.7 |
| 20260509224824 | 88 | 36 | 0.0 | 5.0 | 0.00 | 0.00 | 0.00 | 39 | 1006.7 |
| 20260509224256 | 88 | 140 | 0.0 | 5.0 | 0.00 | 0.00 | 0.00 | 41 | 1006.7 |
| 20260509224020 | 88 | 86 | 0.0 | 3.0 | 0.00 | 0.00 | 0.00 | 41 | 1006.7 |
| 20260509223250 | 88 | 252 | 1.0 | 5.0 | 0.00 | 0.00 | 0.00 | 42 | 1006.7 |
| 20260509222746 | 88 | 130 | 1.0 | 5.0 | 0.00 | 0.00 | 0.00 | 43 | 1006.7 |
| 20260509222222 | 89 | 300 | 0.0 | 3.0 | 0.00 | 0.00 | 0.00 | 45 | 1006.6 |
| 20260509221654 | 88 | 51 | 0.0 | 3.0 | 0.00 | 0.00 | 0.00 | 46 | 1006.6 |
| 20260509221410 | 88 | 314 | 0.0 | 3.0 | 0.00 | 0.00 | 0.00 | 45 | 1006.7 |
| 20260509220645 | 87 | 10 | 0.0 | 3.0 | 0.00 | 0.00 | 0.00 | 46 | 1006.7 |
| 20260509220118 | 87 | 339 | 1.0 | 6.0 | 0.00 | 0.00 | 0.00 | 47 | 1006.7 |
| 20260509215558 | 87 | 121 | 2.0 | 7.0 | 0.00 | 0.00 | 0.00 | 48 | 1006.7 |
| 20260509215058 | 87 | 349 | 1.0 | 7.0 | 0.00 | 0.00 | 0.00 | 45 | 1006.7 |
| 20260509214558 | 88 | 11 | 1.0 | 6.0 | 0.00 | 0.00 | 0.00 | 45 | 1006.8 |
| 20260509214053 | 88 | 6 | 0.0 | 4.0 | 0.00 | 0.00 | 0.00 | 48 | 1006.8 |
| 20260509213530 | 88 | 39 | 0.0 | 4.0 | 0.00 | 0.00 | 0.00 | 44 | 1006.9 |
| 20260509213000 | 88 | 9 | 1.0 | 4.0 | 0.00 | 0.00 | 0.00 | 46 | 1006.9 |
| 20260509212459 | 88 | 119 | 1.0 | 5.0 | 0.00 | 0.00 | 0.00 | 47 | 1007.1 |
| 20260509211942 | 88 | 78 | 1.0 | 5.0 | 0.00 | 0.00 | 0.00 | 47 | 1007.1 |
| 20260509211440 | 88 | 107 | 1.0 | 7.0 | 0.00 | 0.00 | 0.00 | 47 | 1007.1 |
| 20260509210940 | 88 | 82 | 1.0 | 7.0 | 0.00 | 0.00 | 0.00 | 45 | 1007.2 |
| 20260509210440 | 89 | 59 | 0.0 | 3.0 | 0.00 | 0.00 | 0.00 | 49 | 1007.3 |
| 20260509205910 | 88 | 338 | 1.0 | 6.0 | 0.00 | 0.00 | 0.00 | 48 | 1007.2 |
| 20260509205408 | 88 | 115 | 1.0 | 6.0 | 0.00 | 0.00 | 0.00 | 52 | 1007.4 |
| 20260509205104 | 87 | 155 | 0.0 | 4.0 | 0.00 | 0.00 | 0.00 | 54 | 1007.5 |
| 20260509204317 | 87 | 28 | 1.0 | 8.0 | 0.00 | 0.00 | 0.00 | 50 | 1007.6 |
| 20260509203748 | 86 | 15 | 2.0 | 8.0 | 0.00 | 0.00 | 0.00 | 47 | 1007.6 |
| 20260509203246 | 86 | 100 | 3.0 | 8.0 | 0.00 | 0.00 | 0.00 | 51 | 1007.7 |
| 20260509202733 | 87 | 330 | 2.0 | 8.0 | 0.00 | 0.00 | 0.00 | 48 | 1007.8 |
| 20260509202231 | 87 | 69 | 1.0 | 4.0 | 0.00 | 0.00 | 0.00 | 53 | 1007.9 |
| 20260509201734 | 87 | 146 | 1.0 | 4.0 | 0.00 | 0.00 | 0.00 | 53 | 1007.9 |
| 20260509201208 | 87 | 74 | 1.0 | 6.0 | 0.00 | 0.00 | 0.00 | 51 | 1008.0 |
| 20260509200705 | 87 | 1 | 1.0 | 6.0 | 0.00 | 0.00 | 0.00 | 51 | 1008.0 |
| 20260509200142 | 87 | 96 | 0.0 | 5.0 | 0.00 | 0.00 | 0.00 | 56 | 1008.0 |
| 20260509195614 | 86 | 18 | 1.0 | 5.0 | 0.00 | 0.00 | 0.00 | 52 | 1008.0 |
| 20260509195317 | 85 | 38 | 2.0 | 6.0 | 0.00 | 0.00 | 0.00 | 56 | 1008.0 |
| 20260509194739 | 86 | 26 | 1.0 | 6.0 | 0.00 | 0.00 | 0.00 | 54 | 1008.1 |
| 20260509194017 | 86 | 146 | 1.0 | 5.0 | 0.00 | 0.00 | 0.00 | 54 | 1008.2 |
| 20260509193517 | 86 | 176 | 1.0 | 5.0 | 0.00 | 0.00 | 0.00 | 57 | 1008.2 |
| 20260509193218 | 86 | 144 | 1.0 | 7.0 | 0.00 | 0.00 | 0.00 | 61 | 1008.2 |
| 20260509192428 | 85 | 357 | 1.0 | 7.0 | 0.00 | 0.00 | 0.00 | 59 | 1008.2 |
| 20260509191900 | 86 | 341 | 1.0 | 7.0 | 0.00 | 0.00 | 0.00 | 57 | 1008.3 |
| 20260509191338 | 86 | 53 | 1.0 | 7.0 | 0.00 | 0.00 | 0.00 | 58 | 1008.4 |
| 20260509190837 | 85 | 47 | 1.0 | 6.0 | 0.00 | 0.00 | 0.00 | 59 | 1008.4 |
| 20260509190316 | 85 | 77 | 1.0 | 6.0 | 0.00 | 0.00 | 0.00 | 62 | 1008.4 |
| 20260509185941 | 85 | 321 | 1.0 | 6.0 | 0.00 | 0.00 | 0.00 | 61 | 1008.5 |
| 20260509185441 | 84 | 131 | 2.0 | 13.0 | 0.00 | 0.00 | 0.00 | 61 | 1008.5 |
| 20260509184711 | 84 | 73 | 3.0 | 13.0 | 0.00 | 0.00 | 0.00 | 60 | 1008.4 |
| 20260509184212 | 84 | 347 | 2.0 | 10.0 | 0.00 | 0.00 | 0.00 | 59 | 1008.4 |
| 20260509183709 | 84 | 45 | 1.0 | 10.0 | 0.00 | 0.00 | 0.00 | 62 | 1008.4 |
| 20260509183435 | 83 | 72 | 2.0 | 8.0 | 0.00 | 0.00 | 0.00 | 62 | 1008.4 |
| 20260509182648 | 83 | 322 | 2.0 | 9.0 | 0.00 | 0.00 | 0.00 | 60 | 1008.4 |
| 20260509182149 | 83 | 83 | 2.0 | 9.0 | 0.00 | 0.00 | 0.00 | 64 | 1008.5 |
| 20260509181916 | 83 | 50 | 2.0 | 8.0 | 0.00 | 0.00 | 0.00 | 61 | 1008.6 |
| 20260509181128 | 83 | 323 | 2.0 | 8.0 | 0.00 | 0.00 | 0.00 | 60 | 1008.7 |
| 20260509180627 | 83 | 328 | 2.0 | 7.0 | 0.00 | 0.00 | 0.00 | 61 | 1008.7 |
| 20260509180338 | 83 | 63 | 1.0 | 6.0 | 0.00 | 0.00 | 0.00 | 62 | 1008.7 |
| 20260509175548 | 83 | 326 | 1.0 | 8.0 | 0.00 | 0.00 | 0.00 | 61 | 1008.8 |
| 20260509175026 | 83 | 348 | 1.0 | 8.0 | 0.00 | 0.00 | 0.00 | 62 | 1008.9 |
| 20260509174747 | 82 | 347 | 1.0 | 6.0 | 0.00 | 0.00 | 0.00 | 62 | 1009.0 |
| 20260509174024 | 82 | 336 | 1.0 | 6.0 | 0.00 | 0.00 | 0.00 | 62 | 1008.9 |
| 20260509173500 | 83 | 354 | 1.0 | 6.0 | 0.00 | 0.00 | 0.00 | 61 | 1009.0 |
| 20260509172941 | 83 | 355 | 1.0 | 7.0 | 0.00 | 0.00 | 0.00 | 64 | 1009.1 |
| 20260509172416 | 83 | 337 | 1.0 | 7.0 | 0.00 | 0.00 | 0.00 | 61 | 1009.1 |
| 20260509171850 | 83 | 249 | 1.0 | 5.0 | 0.00 | 0.00 | 0.00 | 60 | 1009.1 |
| 20260509171327 | 82 | 118 | 1.0 | 5.0 | 0.00 | 0.00 | 0.00 | 64 | 1009.2 |
| 20260509170758 | 82 | 27 | 1.0 | 5.0 | 0.00 | 0.00 | 0.00 | 64 | 1009.3 |
| 20260509170258 | 82 | 356 | 2.0 | 6.0 | 0.00 | 0.00 | 0.00 | 62 | 1009.3 |
| 20260509165755 | 81 | 359 | 1.0 | 6.0 | 0.00 | 0.00 | 0.00 | 62 | 1009.2 |
| 20260509165255 | 81 | 336 | 1.0 | 7.0 | 0.00 | 0.00 | 0.00 | 66 | 1009.1 |
| 20260509164755 | 81 | 354 | 1.0 | 7.0 | 0.00 | 0.00 | 0.00 | 66 | 1009.2 |
| 20260509164256 | 81 | 68 | 1.0 | 4.0 | 0.00 | 0.00 | 0.00 | 64 | 1009.2 |
| 20260509163943 | 81 | 8 | 1.0 | 6.0 | 0.00 | 0.00 | 0.00 | 64 | 1009.2 |
| 20260509163225 | 81 | 52 | 1.0 | 6.0 | 0.00 | 0.00 | 0.00 | 65 | 1009.3 |
| 20260509162659 | 80 | 5 | 1.0 | 4.0 | 0.00 | 0.00 | 0.00 | 66 | 1009.2 |
| 20260509162157 | 80 | 329 | 1.0 | 4.0 | 0.00 | 0.00 | 0.00 | 67 | 1009.2 |
| 20260509161633 | 79 | 22 | 2.0 | 7.0 | 0.00 | 0.00 | 0.00 | 68 | 1009.2 |
| 20260509161128 | 79 | 20 | 1.0 | 7.0 | 0.00 | 0.00 | 0.00 | 68 | 1009.1 |
| 20260509160626 | 79 | 334 | 2.0 | 7.0 | 0.00 | 0.00 | 0.00 | 68 | 1009.2 |
| 20260509160349 | 78 | 13 | 3.0 | 11.0 | 0.00 | 0.00 | 0.00 | 69 | 1009.2 |
| 20260509155623 | 78 | 326 | 2.0 | 11.0 | 0.00 | 0.00 | 0.00 | 69 | 1009.2 |
| 20260509155118 | 78 | 9 | 2.0 | 7.0 | 0.00 | 0.00 | 0.00 | 70 | 1009.1 |
| 20260509154614 | 78 | 338 | 2.0 | 6.0 | 0.00 | 0.00 | 0.00 | 69 | 1009.1 |
| 20260509154113 | 78 | 38 | 1.0 | 7.0 | 0.00 | 0.00 | 0.00 | 71 | 1009.1 |
| 20260509153609 | 77 | 358 | 2.0 | 7.0 | 0.00 | 0.00 | 0.00 | 70 | 1009.1 |
| 20260509153105 | 77 | 323 | 1.0 | 6.0 | 0.00 | 0.00 | 0.00 | 71 | 1009.1 |
| 20260509152825 | 77 | 349 | 2.0 | 6.0 | 0.00 | 0.00 | 0.00 | 72 | 1009.0 |
| 20260509152037 | 77 | 72 | 2.0 | 9.0 | 0.00 | 0.00 | 0.00 | 72 | 1008.9 |
| 20260509151512 | 77 | 337 | 2.0 | 9.0 | 0.00 | 0.00 | 0.00 | 71 | 1009.0 |
| 20260509150946 | 76 | 352 | 3.0 | 8.0 | 0.00 | 0.00 | 0.00 | 72 | 1009.0 |
| 20260509150420 | 76 | 350 | 3.0 | 6.0 | 0.00 | 0.00 | 0.00 | 73 | 1009.0 |
| 20260509150119 | 76 | 342 | 3.0 | 11.0 | 0.00 | 0.00 | 0.00 | 73 | 1009.1 |
| 20260509145349 | 76 | 351 | 3.0 | 6.0 | 0.00 | 0.00 | 0.00 | 74 | 1009.1 |
| 20260509144848 | 75 | 320 | 2.0 | 8.0 | 0.00 | 0.00 | 0.00 | 74 | 1009.2 |
| 20260509144544 | 75 | 321 | 2.0 | 8.0 | 0.00 | 0.00 | 0.00 | 76 | 1009.3 |
| 20260509144243 | 75 | 330 | 1.0 | 7.0 | 0.00 | 0.00 | 0.00 | 76 | 1009.2 |
| 20260509143251 | 74 | 9 | 1.0 | 7.0 | 0.00 | 0.00 | 0.00 | 77 | 1009.2 |
| 20260509142749 | 74 | 353 | 2.0 | 6.0 | 0.00 | 0.00 | 0.00 | 78 | 1009.2 |
| 20260509142222 | 74 | 12 | 2.0 | 6.0 | 0.00 | 0.00 | 0.00 | 78 | 1009.1 |
| 20260509141720 | 74 | 350 | 1.0 | 6.0 | 0.00 | 0.00 | 0.00 | 77 | 1009.1 |
| 20260509141216 | 74 | 17 | 1.0 | 6.0 | 0.00 | 0.00 | 0.00 | 77 | 1009.0 |
| 20260509140713 | 74 | 274 | 2.0 | 8.0 | 0.00 | 0.00 | 0.00 | 80 | 1008.9 |
| 20260509140147 | 73 | 6 | 2.0 | 8.0 | 0.00 | 0.00 | 0.00 | 79 | 1008.9 |
| 20260509135838 | 73 | 70 | 2.0 | 6.0 | 0.00 | 0.00 | 0.00 | 79 | 1008.8 |
| 20260509135114 | 74 | 37 | 2.0 | 6.0 | 0.00 | 0.00 | 0.00 | 78 | 1008.9 |
| 20260509134550 | 73 | 58 | 2.0 | 8.0 | 0.00 | 0.00 | 0.00 | 79 | 1008.8 |
| 20260509134238 | 73 | 28 | 2.0 | 8.0 | 0.00 | 0.00 | 0.00 | 81 | 1008.7 |
| 20260509133454 | 73 | 36 | 2.0 | 8.0 | 0.00 | 0.00 | 0.00 | 81 | 1008.7 |
| 20260509132941 | 73 | 54 | 1.0 | 8.0 | 0.00 | 0.00 | 0.00 | 82 | 1008.7 |
| 20260509132658 | 72 | 274 | 0.0 | 6.0 | 0.00 | 0.00 | 0.00 | 83 | 1008.7 |
| 20260509131911 | 72 | 359 | 2.0 | 5.0 | 0.00 | 0.00 | 0.00 | 84 | 1008.6 |
| 20260509131346 | 71 | 27 | 2.0 | 7.0 | 0.00 | 0.00 | 0.00 | 84 | 1008.4 |
| 20260509130820 | 71 | 347 | 0.0 | 6.0 | 0.00 | 0.00 | 0.00 | 86 | 1008.5 |
| 20260509130316 | 71 | 276 | 0.0 | 3.0 | 0.00 | 0.00 | 0.00 | 87 | 1008.6 |
| 20260509125748 | 70 | 228 | 0.0 | 3.0 | 0.00 | 0.00 | 0.00 | 88 | 1008.6 |
| 20260509125242 | 70 | 276 | 0.0 | 3.0 | 0.00 | 0.00 | 0.00 | 89 | 1008.5 |
| 20260509124740 | 69 | 221 | 0.0 | 2.0 | 0.00 | 0.00 | 0.00 | 89 | 1008.5 |
| 20260509124210 | 69 | 224 | 0.0 | 2.0 | 0.00 | 0.00 | 0.00 | 89 | 1008.7 |
| 20260509123709 | 68 | 124 | 0.0 | 0.0 | 0.00 | 0.00 | 0.00 | 89 | 1008.5 |
| 20260509123142 | 67 | 124 | 0.0 | 0.0 | 0.00 | 0.00 | 0.00 | 89 | 1008.6 |
| 20260509122618 | 67 | 124 | 0.0 | 0.0 | 0.00 | 0.00 | 0.00 | 88 | 1008.7 |
| 20260509122320 | 67 | 124 | 0.0 | 0.0 | 0.00 | 0.00 | 0.00 | 88 | 1008.5 |
| 20260509121742 | 67 | 124 | 0.0 | 0.0 | 0.00 | 0.00 | 0.00 | 88 | 1008.6 |
| 20260509120954 | 68 | 124 | 0.0 | 0.0 | 0.00 | 0.00 | 0.00 | 88 | 1008.5 |
| 20260509120710 | 68 | 124 | 0.0 | 0.0 | 0.00 | 0.00 | 0.00 | 88 | 1008.5 |
| 20260509115948 | 68 | 124 | 0.0 | 0.0 | 0.00 | 0.00 | 0.00 | 88 | 1008.5 |
| 20260509115416 | 68 | 124 | 0.0 | 0.0 | 0.00 | 0.00 | 0.00 | 88 | 1008.5 |
| 20260509114847 | 68 | 124 | 0.0 | 0.0 | 0.00 | 0.00 | 0.00 | 87 | 1008.4 |
| 20260509114345 | 68 | 124 | 0.0 | 0.0 | 0.00 | 0.00 | 0.00 | 87 | 1008.2 |
| 20260509113841 | 68 | 124 | 0.0 | 0.0 | 0.00 | 0.00 | 0.00 | 87 | 1008.2 |
| 20260509113338 | 69 | 124 | 0.0 | 0.0 | 0.00 | 0.00 | 0.00 | 87 | 1008.0 |
| 20260509112813 | 69 | 124 | 0.0 | 0.0 | 0.00 | 0.00 | 0.00 | 86 | 1007.9 |
| 20260509112246 | 69 | 124 | 0.0 | 0.0 | 0.00 | 0.00 | 0.00 | 87 | 1007.9 |
| 20260509111744 | 69 | 124 | 0.0 | 1.0 | 0.00 | 0.00 | 0.00 | 87 | 1007.9 |
| 20260509111231 | 69 | 124 | 0.0 | 3.0 | 0.00 | 0.00 | 0.00 | 87 | 1007.8 |
| 20260509110734 | 69 | 124 | 0.0 | 3.0 | 0.00 | 0.00 | 0.00 | 87 | 1007.7 |
| 20260509110424 | 69 | 124 | 1.0 | 3.0 | 0.00 | 0.00 | 0.00 | 87 | 1007.7 |
| 20260509105931 | 69 | 114 | 1.0 | 4.0 | 0.00 | 0.00 | 0.00 | 87 | 1007.5 |
| 20260509105135 | 69 | 122 | 1.0 | 4.0 | 0.00 | 0.00 | 0.00 | 87 | 1007.6 |
| 20260509104633 | 69 | 134 | 0.0 | 1.0 | 0.00 | 0.00 | 0.00 | 87 | 1007.6 |
| 20260509104109 | 69 | 230 | 0.0 | 0.0 | 0.00 | 0.00 | 0.00 | 87 | 1007.7 |
| 20260509103814 | 69 | 231 | 0.0 | 0.0 | 0.00 | 0.00 | 0.00 | 87 | 1007.7 |
| 20260509103320 | 69 | 231 | 0.0 | 0.0 | 0.00 | 0.00 | 0.00 | 87 | 1007.6 |
| 20260509102532 | 69 | 230 | 0.0 | 0.0 | 0.00 | 0.00 | 0.00 | 87 | 1007.6 |
| 20260509102003 | 69 | 230 | 0.0 | 0.0 | 0.00 | 0.00 | 0.00 | 86 | 1007.5 |
| 20260509101502 | 69 | 231 | 0.0 | 0.0 | 0.00 | 0.00 | 0.00 | 86 | 1007.6 |
| 20260509100936 | 69 | 230 | 0.0 | 1.0 | 0.00 | 0.00 | 0.00 | 86 | 1007.5 |
| 20260509100628 | 69 | 231 | 0.0 | 1.0 | 0.00 | 0.00 | 0.00 | 86 | 1007.6 |
| 20260509100130 | 69 | 230 | 0.0 | 3.0 | 0.00 | 0.00 | 0.00 | 86 | 1007.4 |
| 20260509095340 | 69 | 235 | 1.0 | 3.0 | 0.00 | 0.00 | 0.00 | 86 | 1007.3 |
| 20260509095035 | 69 | 229 | 2.0 | 6.0 | 0.00 | 0.00 | 0.00 | 87 | 1007.2 |
| 20260509094250 | 69 | 238 | 1.0 | 5.0 | 0.00 | 0.00 | 0.00 | 87 | 1007.1 |
| 20260509093720 | 69 | 241 | 1.0 | 7.0 | 0.00 | 0.00 | 0.00 | 87 | 1007.0 |
| 20260509093219 | 69 | 195 | 3.0 | 7.0 | 0.00 | 0.00 | 0.00 | 87 | 1006.8 |
| 20260509092653 | 69 | 226 | 4.0 | 9.0 | 0.00 | 0.00 | 0.00 | 87 | 1006.2 |
| 20260509092344 | 69 | 150 | 3.0 | 9.0 | 0.00 | 0.00 | 0.00 | 87 | 1006.0 |
| 20260509091622 | 69 | 139 | 3.0 | 7.0 | 0.00 | 0.00 | 0.00 | 87 | 1006.0 |
| 20260509091054 | 69 | 124 | 3.0 | 9.0 | 0.00 | 0.00 | 0.00 | 86 | 1005.9 |
| 20260509090550 | 69 | 109 | 3.0 | 9.0 | 0.00 | 0.00 | 0.00 | 86 | 1005.7 |
| 20260509090047 | 69 | 136 | 3.0 | 9.0 | 0.00 | 0.00 | 0.00 | 86 | 1005.7 |
| 20260509085543 | 69 | 128 | 2.0 | 9.0 | 0.00 | 0.00 | 0.00 | 85 | 1006.0 |
| 20260509085241 | 69 | 192 | 2.0 | 9.0 | 0.00 | 0.00 | 0.00 | 85 | 1006.2 |
| 20260509084710 | 69 | 137 | 4.0 | 11.0 | 0.00 | 0.00 | 0.00 | 85 | 1006.3 |
| 20260509083926 | 69 | 153 | 4.0 | 11.0 | 0.00 | 0.00 | 0.00 | 85 | 1006.3 |
| 20260509083650 | 69 | 149 | 3.0 | 7.0 | 0.00 | 0.00 | 0.00 | 85 | 1006.6 |
| 20260509082920 | 69 | 96 | 2.0 | 6.0 | 0.00 | 0.00 | 0.00 | 84 | 1007.0 |
| 20260509082846 | 69 | 261 | 2.0 | 6.0 | 0.00 | 0.00 | 0.00 | 84 | 1007.4 |